Location: Austin
(30.3000°N, 97.7500°W)
Time: 16:42:18
(UTC-05:00)

Cosmos 923 Rocket - Visible Passes

Search period start: 13 July 2025 00:00
Search period end: 23 July 2025 00:00
Orbit: 755 x 780 km, 74.0° (Epoch: 12 July)

Date Brightness Start Highest point End Pass type
(mag) Time Alt. Az. Time Alt. Az. Time Alt. Az.
13 Jul 6.0 00:55:10 10° N 00:57:19 23° NNE 00:57:19 23° NNE visible
14 Jul 6.2 00:18:45 10° NNE 00:20:39 17° NE 00:20:39 17° NE visible
14 Jul 6.5 02:00:10 10° NW 02:00:54 14° NW 02:00:54 14° NW visible
14 Jul 6.5 23:43:23 10° NE 23:44:01 11° NE 23:44:01 11° NE visible
15 Jul 6.2 01:22:37 10° NNW 01:24:16 21° NNW 01:24:16 21° NNW visible
16 Jul 5.9 00:45:27 10° N 00:47:40 26° N 00:47:40 26° N visible
17 Jul 5.8 00:08:37 10° N 00:11:05 25° NNE 00:11:05 25° NNE visible
17 Jul 6.0 23:32:15 10° NNE 23:34:32 18° NE 23:34:32 18° NE visible
18 Jul 6.4 01:13:32 10° NW 01:14:46 16° NW 01:14:46 16° NW visible
18 Jul 6.3 22:57:02 10° NE 22:58:00 11° NE 22:58:00 11° NE visible
19 Jul 5.9 00:36:01 10° NNW 00:38:15 26° NNW 00:38:15 26° NNW visible
19 Jul 5.4 23:58:53 10° N 00:01:45 33° N 00:01:45 33° N visible
20 Jul 5.4 23:22:05 10° N 23:25:17 30° NNE 23:25:17 30° NNE visible
21 Jul 6.7 01:04:58 10° NW 01:05:32 12° WNW 01:05:32 12° WNW visible
21 Jul 5.7 22:45:44 10° NNE 22:48:50 20° NE 22:48:50 20° NE visible
22 Jul 6.0 00:26:55 10° NW 00:29:06 22° NW 00:29:06 22° NW visible
22 Jul 6.1 22:10:44 10° NE 22:12:07 11° ENE 22:12:25 11° ENE visible
22 Jul 5.2 23:49:25 10° NNW 23:52:41 38° NW 23:52:41 38° NW visible
